TimeCST,TemperatureF,Dew PointF,Humidity,Sea Level PressureIn,VisibilityMPH,Wind Direction,Wind SpeedMPH,Gust SpeedMPH,PrecipitationIn,Events,Conditions,WindDirDegrees,DateUTC
12:15 AM,53.8,52.7,96,30.01,3.0,WNW,6.9,-,0.03,Rain,Rain,300,2012-11-12 06:15:00
12:35 AM,53.6,52.2,95,30.00,5.0,NNW,8.1,-,0.09,Rain,Rain,330,2012-11-12 06:35:00
12:55 AM,53.1,51.8,95,30.01,5.0,NW,8.1,-,0.13,Rain,Rain,320,2012-11-12 06:55:00
1:15 AM,52.9,51.8,96,30.02,4.0,NW,6.9,-,0.04,Rain,Rain,320,2012-11-12 07:15:00
1:55 AM,52.9,51.8,96,30.06,4.0,West,12.7,-,0.15,Rain,Heavy Rain,280,2012-11-12 07:55:00
2:15 AM,52.5,51.1,95,30.03,7.0,WNW,11.5,17.3,0.04,Rain,Rain,300,2012-11-12 08:15:00
2:35 AM,52.2,50.9,95,30.06,5.0,WNW,13.8,-,0.09,Rain,Heavy Rain,290,2012-11-12 08:35:00
2:55 AM,50.4,48.4,93,30.07,7.0,NW,20.7,29.9,0.13,Rain,Rain,310,2012-11-12 08:55:00
3:15 AM,47.5,45.7,93,30.07,5.0,WNW,19.6,-,0.04,Rain,Rain,290,2012-11-12 09:15:00
3:35 AM,46.6,44.6,93,30.10,7.0,West,16.1,-,0.07,Rain,Light Rain,280,2012-11-12 09:35:00
3:55 AM,44.8,43.2,94,30.10,5.0,WNW,15.0,-,0.14,Rain,Heavy Rain,290,2012-11-12 09:55:00
4:15 AM,44.1,42.8,95,30.10,5.0,WNW,13.8,20.7,0.08,Rain,Rain,290,2012-11-12 10:15:00
4:35 AM,43.3,41.0,91,30.14,10.0,WNW,15.0,-,0.09,,Light Drizzle,290,2012-11-12 10:35:00
4:55 AM,42.8,40.6,92,30.14,10.0,WNW,19.6,-,0.10,Rain,Light Rain,290,2012-11-12 10:55:00
5:15 AM,42.1,39.6,91,30.13,10.0,WNW,19.6,26.5,N/A,,Light Drizzle,300,2012-11-12 11:15:00
5:35 AM,41.4,38.7,90,30.18,10.0,WNW,21.9,31.1,N/A,,Light Drizzle,290,2012-11-12 11:35:00
5:55 AM,41.0,38.3,90,30.19,10.0,WNW,13.8,-,N/A,Rain,Rain,300,2012-11-12 11:55:00
6:55 AM,38.3,36.9,95,30.23,5.0,NW,15.0,20.7,0.01,Rain,Light Rain,310,2012-11-12 12:55:00
7:15 AM,38.3,36.9,95,30.24,10.0,WNW,13.8,19.6,N/A,,Light Drizzle,290,2012-11-12 13:15:00
7:35 AM,38.5,35.2,88,30.27,10.0,West,15.0,21.9,N/A,,Overcast,280,2012-11-12 13:35:00
7:55 AM,38.3,34.7,87,30.27,10.0,West,17.3,21.9,N/A,,Overcast,280,2012-11-12 13:55:00
8:15 AM,37.6,33.8,86,30.27,10.0,West,18.4,23.0,N/A,,Mostly Cloudy,280,2012-11-12 14:15:00
8:35 AM,38.3,33.6,83,30.29,10.0,West,16.1,-,N/A,,Scattered Clouds,280,2012-11-12 14:35:00
8:55 AM,37.8,32.5,81,30.30,10.0,West,17.3,26.5,N/A,,Scattered Clouds,280,2012-11-12 14:55:00
9:15 AM,38.5,32.7,80,30.31,10.0,WNW,17.3,25.3,N/A,,Scattered Clouds,290,2012-11-12 15:15:00
9:35 AM,38.5,31.1,75,30.31,10.0,West,18.4,25.3,N/A,,Clear,280,2012-11-12 15:35:00
9:55 AM,39.2,30.7,72,30.32,10.0,WNW,19.6,27.6,N/A,,Clear,290,2012-11-12 15:55:00
10:15 AM,39.9,31.1,71,30.33,10.0,WNW,17.3,-,N/A,,Clear,290,2012-11-12 16:15:00
10:35 AM,40.3,29.8,66,30.34,10.0,WNW,20.7,-,N/A,,Clear,290,2012-11-12 16:35:00
10:55 AM,41.0,30.2,65,30.33,10.0,West,15.0,-,N/A,,Clear,270,2012-11-12 16:55:00
11:15 AM,41.4,29.1,62,30.34,10.0,West,18.4,23.0,N/A,,Clear,280,2012-11-12 17:15:00
11:35 AM,42.3,28.2,58,30.34,10.0,West,18.4,25.3,N/A,,Clear,280,2012-11-12 17:35:00
11:55 AM,42.8,28.4,57,30.34,10.0,WNW,16.1,24.2,N/A,,Clear,300,2012-11-12 17:55:00
12:15 PM,43.7,28.2,54,30.33,10.0,WNW,15.0,20.7,N/A,,Clear,290,2012-11-12 18:15:00
12:35 PM,44.1,27.3,52,30.33,10.0,WNW,15.0,23.0,N/A,,Clear,290,2012-11-12 18:35:00
12:55 PM,44.8,29.5,55,30.33,10.0,West,15.0,19.6,N/A,,Clear,280,2012-11-12 18:55:00
1:15 PM,45.0,27.7,51,30.33,10.0,West,13.8,19.6,N/A,,Clear,280,2012-11-12 19:15:00
1:35 PM,44.8,26.4,49,30.33,10.0,West,16.1,21.9,N/A,,Clear,270,2012-11-12 19:35:00
1:55 PM,45.1,27.9,51,30.33,10.0,West,10.4,-,N/A,,Clear,280,2012-11-12 19:55:00
2:15 PM,45.3,26.2,47,30.33,10.0,WNW,15.0,-,N/A,,Clear,290,2012-11-12 20:15:00
2:35 PM,45.7,27.3,49,30.33,10.0,West,10.4,-,N/A,,Clear,260,2012-11-12 20:35:00
2:55 PM,45.5,26.4,47,30.34,10.0,West,12.7,-,N/A,,Clear,280,2012-11-12 20:55:00
3:15 PM,45.1,26.6,48,30.34,10.0,West,12.7,-,N/A,,Clear,260,2012-11-12 21:15:00
3:35 PM,45.0,26.8,49,30.34,10.0,West,10.4,-,N/A,,Clear,260,2012-11-12 21:35:00
3:55 PM,44.6,26.1,48,30.35,10.0,West,12.7,18.4,N/A,,Clear,270,2012-11-12 21:55:00
4:15 PM,43.9,25.9,49,30.35,10.0,West,11.5,-,N/A,,Clear,280,2012-11-12 22:15:00
4:35 PM,43.0,27.1,54,30.36,10.0,West,6.9,-,N/A,,Clear,270,2012-11-12 22:35:00
4:55 PM,41.2,29.3,63,30.37,10.0,West,6.9,-,N/A,,Clear,270,2012-11-12 22:55:00
5:15 PM,40.3,29.3,65,30.38,10.0,WSW,5.8,-,N/A,,Clear,250,2012-11-12 23:15:00
5:35 PM,39.4,29.1,67,30.38,10.0,SW,4.6,-,N/A,,Clear,230,2012-11-12 23:35:00
5:55 PM,39.7,28.0,63,30.39,10.0,SW,3.5,-,N/A,,Clear,220,2012-11-12 23:55:00
6:15 PM,38.7,29.3,69,30.39,10.0,SW,4.6,-,N/A,,Clear,220,2012-11-13 00:15:00
6:55 PM,38.3,28.6,68,30.40,10.0,SSW,3.5,-,N/A,,Clear,210,2012-11-13 00:55:00
7:15 PM,36.1,31.1,82,30.41,10.0,Calm,Calm,-,N/A,,Clear,0,2012-11-13 01:15:00
7:35 PM,35.6,30.9,83,30.41,10.0,SSW,3.5,-,N/A,,Clear,210,2012-11-13 01:35:00
7:55 PM,35.2,29.3,79,30.41,10.0,SW,4.6,-,N/A,,Clear,220,2012-11-13 01:55:00
8:15 PM,35.8,29.8,79,30.42,10.0,SW,3.5,-,N/A,,Clear,220,2012-11-13 02:15:00
8:35 PM,34.9,30.4,84,30.42,10.0,SW,4.6,-,N/A,,Clear,230,2012-11-13 02:35:00
8:55 PM,34.9,29.5,81,30.43,10.0,SW,4.6,-,N/A,,Clear,230,2012-11-13 02:55:00
9:15 PM,34.7,30.2,84,30.43,10.0,SW,4.6,-,N/A,,Clear,230,2012-11-13 03:15:00
9:35 PM,34.0,30.6,87,30.44,10.0,SW,3.5,-,N/A,,Clear,220,2012-11-13 03:35:00
9:55 PM,34.2,29.8,84,30.44,10.0,Calm,Calm,-,N/A,,Clear,0,2012-11-13 03:55:00
10:15 PM,34.0,29.7,84,30.44,10.0,Calm,Calm,-,N/A,,Clear,0,2012-11-13 04:15:00
10:35 PM,34.2,29.5,83,30.45,10.0,Calm,Calm,-,N/A,,Clear,0,2012-11-13 04:35:00
10:55 PM,33.8,31.6,92,30.45,10.0,South,3.5,-,N/A,,Clear,190,2012-11-13 04:55:00
11:15 PM,33.4,30.9,90,30.45,10.0,WSW,3.5,-,N/A,,Clear,240,2012-11-13 05:15:00
11:35 PM,33.3,30.6,90,30.45,10.0,Calm,Calm,-,N/A,,Clear,0,2012-11-13 05:35:00
11:55 PM,32.0,30.0,92,30.45,10.0,WSW,3.5,-,N/A,,Clear,250,2012-11-13 05:55:00